Location: Most
(50.5133°N, 13.6207°E)
Time: 23:35:25
(UTC+01:00)

ISS - Pass Details

Date: 15 January 2018
Orbit: 402 x 407 km, 51.6° (Epoch: 22 January)

Event Time Altitude Azimuth Distance (km) Brightness Sun altitude
Exits shadow 05:26:36 15° 164° (SSE) 1,211 -1.2 -23.7°
Drops below altitude 10° 05:27:21 10° 155° (SSE) 1,461 -0.7 -23.6°
Sets 05:29:37 0° 143° (SE) 2,318 0.6 -23.2°
